TimeEST,TemperatureF,Dew PointF,Humidity,Sea Level PressureIn,VisibilityMPH,Wind Direction,Wind SpeedMPH,Gust SpeedMPH,PrecipitationIn,Events,Conditions,WindDirDegrees,DateUTC
12:15 AM,13.8,8.6,80,30.49,10.0,WNW,6.9,-,N/A,,Mostly Cloudy,300,2013-11-24 05:15:00
12:35 AM,14.0,9.0,80,30.49,10.0,WNW,8.1,-,N/A,,Mostly Cloudy,300,2013-11-24 05:35:00
12:55 AM,14.4,8.8,79,30.48,10.0,WNW,9.2,-,N/A,,Mostly Cloudy,300,2013-11-24 05:55:00
1:15 AM,13.1,7.9,80,30.48,10.0,WNW,10.4,-,N/A,,Scattered Clouds,290,2013-11-24 06:15:00
1:35 AM,12.4,7.3,80,30.49,10.0,WNW,9.2,-,N/A,,Clear,290,2013-11-24 06:35:00
1:55 AM,12.7,7.7,80,30.49,10.0,WNW,8.1,-,N/A,,Clear,290,2013-11-24 06:55:00
2:15 AM,12.4,7.3,80,30.49,10.0,West,8.1,-,N/A,,Clear,280,2013-11-24 07:15:00
2:35 AM,12.7,7.7,80,30.49,10.0,WNW,8.1,-,N/A,,Clear,290,2013-11-24 07:35:00
2:55 AM,12.7,7.7,80,30.50,10.0,West,9.2,-,N/A,,Clear,280,2013-11-24 07:55:00
3:15 AM,12.7,7.7,80,30.50,10.0,West,10.4,-,N/A,,Clear,280,2013-11-24 08:15:00
3:35 AM,12.7,7.5,80,30.50,10.0,West,10.4,-,N/A,,Clear,280,2013-11-24 08:35:00
3:55 AM,12.7,7.5,80,30.50,10.0,WNW,10.4,-,N/A,,Clear,290,2013-11-24 08:55:00
4:15 AM,12.9,7.3,78,30.50,10.0,West,12.7,-,N/A,,Clear,280,2013-11-24 09:15:00
4:35 AM,12.7,7.3,79,30.50,10.0,WNW,9.2,-,N/A,,Clear,290,2013-11-24 09:35:00
4:55 AM,12.2,6.8,79,30.50,10.0,WNW,9.2,-,N/A,,Clear,290,2013-11-24 09:55:00
5:15 AM,11.8,6.6,80,30.50,10.0,WNW,8.1,-,N/A,,Clear,290,2013-11-24 10:15:00
5:35 AM,10.8,6.1,81,30.50,10.0,WNW,6.9,-,N/A,,Clear,290,2013-11-24 10:35:00
5:55 AM,11.3,6.8,82,30.50,10.0,West,6.9,-,N/A,,Clear,270,2013-11-24 10:55:00
6:15 AM,11.3,6.4,81,30.52,10.0,WNW,6.9,-,N/A,,Clear,290,2013-11-24 11:15:00
6:35 AM,10.0,5.7,83,30.52,10.0,WNW,5.8,-,N/A,,Clear,290,2013-11-24 11:35:00
6:55 AM,10.9,6.3,81,30.52,10.0,WNW,6.9,-,N/A,,Clear,300,2013-11-24 11:55:00
7:15 AM,10.4,6.1,83,30.52,10.0,NW,6.9,-,N/A,,Clear,310,2013-11-24 12:15:00
7:35 AM,10.9,6.6,83,30.52,10.0,WNW,5.8,-,N/A,,Clear,290,2013-11-24 12:35:00
7:55 AM,11.1,6.8,83,30.53,10.0,WNW,5.8,-,N/A,,Clear,290,2013-11-24 12:55:00
8:15 AM,12.0,7.0,80,30.53,10.0,WNW,5.8,-,N/A,,Clear,290,2013-11-24 13:15:00
8:35 AM,13.3,8.1,80,30.54,10.0,West,4.6,-,N/A,,Clear,280,2013-11-24 13:35:00
8:55 AM,15.3,9.1,77,30.55,10.0,WNW,6.9,-,N/A,,Clear,290,2013-11-24 13:55:00
9:15 AM,16.7,9.9,74,30.55,10.0,WNW,11.5,-,N/A,,Clear,290,2013-11-24 14:15:00
9:34 AM,17.6,10.4,73,30.56,10.0,WNW,8.1,-,N/A,,Clear,290,2013-11-24 14:34:00
9:55 AM,18.5,10.6,71,30.56,10.0,WNW,9.2,16.1,N/A,,Clear,300,2013-11-24 14:55:00
10:15 AM,19.0,10.2,69,30.55,10.0,NW,12.7,17.3,N/A,,Clear,310,2013-11-24 15:15:00
10:35 AM,19.6,9.9,66,30.56,10.0,WNW,9.2,-,N/A,,Scattered Clouds,300,2013-11-24 15:35:00
10:55 AM,20.3,9.1,62,30.56,10.0,NW,10.4,-,N/A,,Mostly Cloudy,320,2013-11-24 15:55:00
11:15 AM,19.8,8.1,61,30.55,10.0,NW,11.5,-,N/A,,Overcast,310,2013-11-24 16:15:00
11:35 AM,19.9,7.7,59,30.55,10.0,NW,10.4,16.1,N/A,,Overcast,320,2013-11-24 16:35:00
11:55 AM,20.1,7.5,58,30.54,10.0,WNW,10.4,16.1,N/A,,Overcast,290,2013-11-24 16:55:00
12:15 PM,20.7,7.0,56,30.53,10.0,NW,10.4,-,N/A,,Overcast,310,2013-11-24 17:15:00
12:35 PM,21.4,8.1,57,30.52,10.0,NW,10.4,-,N/A,,Overcast,310,2013-11-24 17:35:00
12:55 PM,21.2,7.7,56,30.52,10.0,WNW,9.2,-,N/A,,Overcast,300,2013-11-24 17:55:00
1:15 PM,22.5,7.7,53,30.51,10.0,NW,9.2,16.1,N/A,,Mostly Cloudy,310,2013-11-24 18:15:00
1:35 PM,21.7,8.4,57,30.50,10.0,WNW,10.4,17.3,N/A,,Mostly Cloudy,290,2013-11-24 18:35:00
1:55 PM,21.4,7.3,55,30.50,10.0,NW,10.4,-,N/A,,Mostly Cloudy,310,2013-11-24 18:55:00
2:15 PM,22.6,8.1,54,30.49,10.0,West,13.8,-,N/A,,Scattered Clouds,260,2013-11-24 19:15:00
2:35 PM,21.6,7.5,55,30.49,10.0,West,10.4,17.3,N/A,,Mostly Cloudy,270,2013-11-24 19:35:00
2:55 PM,21.9,8.1,55,30.49,10.0,West,10.4,16.1,N/A,,Overcast,270,2013-11-24 19:55:00
3:16 PM,22.6,8.2,54,30.49,10.0,West,11.5,-,N/A,,Overcast,270,2013-11-24 20:16:00
3:35 PM,21.7,7.7,55,30.49,10.0,WNW,8.1,-,N/A,,Overcast,290,2013-11-24 20:35:00
3:55 PM,21.9,8.4,56,30.49,10.0,WNW,9.2,-,N/A,,Mostly Cloudy,300,2013-11-24 20:55:00
4:15 PM,22.1,8.6,56,30.49,10.0,WNW,6.9,-,N/A,,Mostly Cloudy,300,2013-11-24 21:15:00
4:35 PM,21.9,8.6,57,30.49,10.0,West,10.4,16.1,N/A,,Overcast,270,2013-11-24 21:35:00
4:55 PM,21.7,9.1,58,30.48,10.0,West,6.9,-,N/A,,Overcast,260,2013-11-24 21:55:00
5:16 PM,21.7,9.5,59,30.48,10.0,West,9.2,-,N/A,,Overcast,270,2013-11-24 22:16:00
5:35 PM,21.6,9.5,60,30.48,10.0,West,6.9,-,N/A,,Overcast,280,2013-11-24 22:35:00
5:55 PM,20.7,9.5,62,30.47,10.0,WSW,3.5,-,N/A,,Mostly Cloudy,250,2013-11-24 22:55:00
6:15 PM,18.7,9.5,67,30.46,10.0,SW,3.5,-,N/A,,Scattered Clouds,230,2013-11-24 23:15:00
6:35 PM,18.5,9.9,69,30.46,10.0,SW,3.5,-,N/A,,Clear,230,2013-11-24 23:35:00
6:55 PM,18.5,10.0,70,30.46,10.0,SW,4.6,-,N/A,,Clear,230,2013-11-24 23:55:00
7:15 PM,18.5,10.4,71,30.45,10.0,SW,3.5,-,N/A,,Clear,220,2013-11-25 00:15:00
7:35 PM,18.0,10.4,72,30.45,10.0,SW,4.6,-,N/A,,Clear,220,2013-11-25 00:35:00
7:55 PM,17.6,11.3,76,30.44,10.0,SW,4.6,-,N/A,,Clear,220,2013-11-25 00:55:00
8:15 PM,18.3,12.2,77,30.43,10.0,SW,4.6,-,N/A,,Clear,230,2013-11-25 01:15:00
8:35 PM,18.7,12.7,78,30.42,10.0,SW,5.8,-,N/A,,Clear,230,2013-11-25 01:35:00
8:55 PM,18.3,12.7,79,30.41,10.0,SSW,5.8,-,N/A,,Clear,210,2013-11-25 01:55:00
9:15 PM,18.1,12.9,80,30.40,10.0,SSW,4.6,-,N/A,,Clear,200,2013-11-25 02:15:00
9:35 PM,17.6,13.1,83,30.40,10.0,SSW,5.8,-,N/A,,Clear,210,2013-11-25 02:35:00
9:55 PM,18.0,13.8,84,30.40,10.0,SSW,5.8,-,N/A,,Clear,210,2013-11-25 02:55:00
10:15 PM,17.6,13.6,84,30.39,10.0,SSW,5.8,-,N/A,,Clear,210,2013-11-25 03:15:00
10:35 PM,17.8,13.8,84,30.39,10.0,SW,5.8,-,N/A,,Clear,220,2013-11-25 03:35:00
10:55 PM,18.0,13.5,83,30.39,10.0,SW,6.9,-,N/A,,Clear,220,2013-11-25 03:55:00
11:15 PM,17.8,13.1,82,30.38,10.0,SSW,6.9,-,N/A,,Clear,200,2013-11-25 04:15:00
11:35 PM,18.0,12.7,80,30.37,10.0,SSW,9.2,-,N/A,,Clear,210,2013-11-25 04:35:00
11:55 PM,18.1,12.2,78,30.35,10.0,SSW,9.2,-,N/A,,Clear,200,2013-11-25 04:55:00